Location: York
(31.8935°S, 116.7682°E)
Time: 13:16:57
(UTC+08:00)

Envisat - Pass Details

Date: 21 May 2021
Orbit: 764 x 766 km, 98.1° (Epoch: 18 June)

Event Time Altitude Azimuth Distance (km) Brightness Sun altitude
Rises 06:01:38 0° 336° (NNW) 3,217 6.2 -12.1°
Reaches altitude 10° 06:04:36 10° 318° (NW) 2,301 5.2 -11.5°
Maximum altitude 06:08:04 19° 274° (W) 1,795 4.4 -10.8°
Enters shadow 06:11:09 12° 235° (SW) 2,215 4.8 -10.2°
